[[{"header":{"parameterUnit":"m.s-1","parameterCategory":1,"la1":30.2991,"la2":30.254,"lo1":-89.0895,"lo2":-89.0444,"dy":0.0017,"dx":0.0017,"nx":28,"ny":28,"refTime":"2024-07-13T09:00:00:Z","depth":0,"parameterNumber":2,"parameterNumberName":"U-component_of_WINDS"},"data":[0,0,0,0,0,0,0,0,0,0,0,0,0,0,0,0,0,0,0,0,0,0,0,0,0,0,0,0,0,0,0,0,0,0,0,0,0,0,0,0,0,0,0,0,0,0,0,0,0,0,0,0,0,0,0,0,0,0,3.2856,3.2858,0,3.3007,3.3009,3.3011,3.2964,3.296,3.2957,3.2954,3.3113,3.312,3.3127,0,0,0,0,0,0,0,0,0,0,0,0,0,3.253,3.2536,3.2856,3.2858,3.286,3.3007,3.3009,3.3011,3.2964,3.296,3.2956,3.2953,3.3111,3.3119,3.3128,0,0,0,0,0,0,0,0,0,0,0,0,0,3.2676,3.2538,3.2856,3.2854,3.2855,3.3006,3.3009,3.3012,3.2965,3.296,3.2955,3.2951,3.3108,3.3119,3.3129,3.3293,0,0,3.3162,3.3167,0,0,0,0,0,0,0,0,3.2667,3.2688,3.2852,3.2854,3.2856,3.2961,3.2952,3.3106,3.2966,3.2924,3.2954,3.2948,3.3067,3.3081,3.312,3.33,3.3307,3.3163,3.317,3.3175,3.3178,0,0,0,0,0,0,0,3.2657,3.2681,3.2916,3.2855,3.2857,3.2847,3.2862,3.2981,3.3021,3.2927,3.2924,3.2942,3.3067,3.311,3.3123,3.3309,3.3163,3.3173,3.3179,3.3184,3.3629,3.3634,0,0,0,0,0,0,3.2646,3.2673,3.2911,3.292,3.2748,3.2856,3.2874,3.2933,3.3019,3.3028,3.2946,3.2939,3.3093,3.3111,3.3129,3.3324,3.3175,3.3185,3.3191,3.3624,3.3631,3.3636,0,0,0,0,0,0,3.2639,3.2667,3.2905,3.2796,3.2825,3.2867,3.2934,3.2938,3.298,3.3033,3.3041,3.2982,3.309,3.3113,3.3251,3.3329,3.319,3.3199,3.3618,3.3626,3.3633,3.3718,0,0,0,0,0,0,3.263,3.2665,3.2727,3.2797,3.2831,3.3025,3.2939,3.2945,3.2999,3.2991,3.3069,3.3077,3.3088,3.3236,3.3262,3.3342,3.3208,3.3611,3.3622,3.3631,3.3708,3.3727,3.3744,0,0,0,0,0,3.2618,3.2746,3.273,3.2759,3.2909,3.3029,3.3049,3.3057,3.3005,3.3068,3.3102,3.3075,3.3316,3.325,3.328,3.3364,3.3606,3.3619,3.363,3.37,3.3724,3.3744,0,0,0,0,0,0,3.2685,3.2755,3.2739,3.2893,3.2955,3.3021,3.31,3.3082,3.3162,3.3152,3.3161,3.3179,3.332,3.3356,3.328,3.3525,3.3454,3.3472,3.3497,3.352,3.3537,3.3525,3.3217,0,0,0,0,0,3.2718,3.2808,3.2865,3.2996,3.3027,3.3059,3.3111,3.3112,3.3178,3.3204,3.3248,3.3314,3.3405,3.3464,3.3551,3.3713,3.3729,3.3785,3.3803,3.3818,3.3834,3.3921,3.3946,3.3676,3.3676,3.3675,0,0,3.2786,3.2836,3.2893,3.301,3.3059,3.3152,3.3081,3.3184,3.3254,3.3221,3.3353,3.3387,3.3461,3.3612,3.368,3.3646,3.3912,3.3833,3.3844,3.3852,3.3936,3.3962,3.3984,3.3684,3.3682,3.3681,0,0,3.2959,3.3006,3.3119,3.3168,3.3241,3.3261,3.3288,3.3357,3.3378,3.351,3.3487,3.3571,3.3727,3.378,3.3827,3.4019,3.3997,3.4047,3.4141,3.4226,3.4247,3.4266,3.4333,3.4358,3.4063,3.4063,3.4063,0,3.3035,3.3175,3.318,3.3284,3.3336,3.3308,3.3423,3.3471,3.357,3.3607,3.3567,3.3761,3.3809,3.3971,3.4017,3.4057,3.4088,3.4038,3.4244,3.4263,3.428,3.4345,3.437,3.4068,3.4068,3.4067,3.4067,0,3.3264,3.3361,3.3444,3.3538,3.3599,3.3709,3.3731,3.3793,3.3789,3.3813,3.3948,3.4004,3.41,3.4139,3.4137,3.4301,3.4277,3.4241,3.4168,3.4311,3.4372,3.4397,3.4076,3.4074,3.4073,3.4071,0,0,3.3484,3.3577,3.3608,3.3649,3.3728,3.3803,3.3911,3.4004,3.4056,3.4126,3.4216,3.4348,3.4314,3.4368,3.4371,3.4446,3.4593,3.44,3.4402,3.4433,3.4776,3.4802,3.483,3.4578,3.4583,3.4587,3.4769,0,3.3662,3.385,3.3857,3.4029,3.4118,3.4092,3.4186,3.4245,3.427,3.4351,3.4379,3.4472,3.4421,3.4453,3.4526,3.4559,3.4661,3.4546,3.4663,3.4667,3.4644,3.4862,3.4891,3.5059,3.4793,3.4797,3.48,0,3.3896,3.3969,3.4149,3.4213,3.4251,3.4335,3.442,3.4497,3.4563,3.4576,3.4635,3.4627,3.4738,3.4663,3.4816,3.4737,3.4786,3.4809,3.4816,3.4827,3.4741,3.4878,3.5114,3.5138,3.4837,3.4834,3.4831,0,3.4036,3.4181,3.4307,3.4343,3.4422,3.4481,3.4517,3.4578,3.4632,3.4707,3.4742,3.483,3.4878,3.4946,3.4962,3.4905,3.5114,3.5041,3.5129,3.5128,3.5173,3.517,3.5419,3.5206,3.5206,3.5205,3.5205,0,3.4234,3.4345,3.4371,3.4448,3.4572,3.4579,3.4701,3.4733,3.4787,3.4871,3.4855,3.4934,3.495,3.5033,3.5047,3.5171,3.5193,3.5207,3.5209,3.5208,3.5206,3.5239,3.5227,3.5212,3.5211,3.5209,3.5208,0,3.4412,3.4434,3.4569,3.4631,3.4649,3.4738,3.4791,3.4866,3.4888,3.4994,3.502,3.5056,3.5152,3.5175,3.5291,3.5299,3.5446,3.5437,3.5423,3.5422,3.5508,3.5499,3.5787,3.5825,3.5588,3.559,3.5592,0,3.4537,3.4621,3.4691,3.4745,3.4783,3.487,3.4925,3.4936,3.4994,3.5074,3.5139,3.5233,3.5309,3.5464,3.5502,3.559,3.5583,3.5677,3.5596,3.5591,3.5583,3.5577,3.5585,3.5693,3.5695,3.5697,3.5699,0,3.4755,3.4761,3.484,3.4923,3.4988,3.5055,3.5118,3.5163,3.5182,3.5249,3.5346,3.5404,3.552,3.5614,3.5702,3.574,3.5723,3.5724,3.5749,3.5748,3.5736,3.5742,3.5464,3.5717,3.5716,3.5714,3.5713,3.5712,3.491,3.4982,3.5043,3.5131,3.5179,3.5238,3.531,3.5341,3.5422,3.5516,3.5518,3.5623,3.5686,3.5802,3.5845,3.5929,3.59,3.5936,3.5945,3.5954,3.5961,3.5723,3.5945,3.5945,3.5944,3.5944,3.5943,0,3.5126,3.5163,3.5244,3.5331,3.5401,3.5377,3.5445,3.5505,3.5598,3.5657,3.5731,3.5842,3.5932,3.5976,3.6066,3.6124,3.6119,3.6147,3.6143,3.6151,3.5982,3.5951,3.615,3.615,3.615,3.615,3.615,3.615,3.5246,3.5368,3.5381,3.5526,3.5563,3.5665,3.5706,3.576,3.5807,3.5931,3.6005,3.6032,3.6086,3.6179,3.626,3.6271,3.6304,3.6337,3.6344,3.6185,3.6164,3.6143,3.6114,3.6344,3.6345,3.6506,3.6507,3.6508]},{"header":{"parameterUnit":"m.s-1","parameterCategory":1,"la1":30.2991,"la2":30.254,"lo1":-89.0895,"lo2":-89.0444,"dy":0.0017,"dx":0.0017,"nx":28,"ny":28,"refTime":"2024-07-13T09:00:00:Z","depth":0,"parameterNumber":3,"parameterNumberName":"V-component_of_WINDS"},"data":[0,0,0,0,0,0,0,0,0,0,0,0,0,0,0,0,0,0,0,0,0,0,0,0,0,0,0,0,0,0,0,0,0,0,0,0,0,0,0,0,0,0,0,0,0,0,0,0,0,0,0,0,0,0,0,0,0,0,0.9623,0.9624,0,0.9651,0.9652,0.9652,0.9618,0.9617,0.9616,0.9614,0.9644,0.9646,0.9648,0,0,0,0,0,0,0,0,0,0,0,0,0,0.9541,0.9542,0.9623,0.9624,0.9624,0.9651,0.9652,0.9652,0.9618,0.9617,0.9615,0.9614,0.9643,0.9646,0.9648,0,0,0,0,0,0,0,0,0,0,0,0,0,0.9573,0.9543,0.9623,0.961,0.961,0.9651,0.9652,0.9652,0.9619,0.9617,0.9615,0.9613,0.9643,0.9645,0.9648,0.9704,0,0,0.9657,0.9659,0,0,0,0,0,0,0,0,0.9572,0.9577,0.9612,0.9611,0.9611,0.9629,0.9633,0.967,0.9619,0.9615,0.9614,0.9612,0.9641,0.9644,0.9653,0.9706,0.9707,0.9658,0.9659,0.9661,0.9661,0,0,0,0,0,0,0,0.9569,0.9575,0.9634,0.9613,0.9612,0.9603,0.9606,0.964,0.9638,0.9615,0.9613,0.9617,0.964,0.965,0.9653,0.9707,0.9657,0.966,0.9662,0.9663,0.9806,0.9808,0,0,0,0,0,0,0.9569,0.9573,0.9634,0.9635,0.9586,0.9606,0.9609,0.9625,0.9638,0.9638,0.9618,0.9615,0.9646,0.965,0.9654,0.972,0.9661,0.9663,0.9665,0.9804,0.9806,0.9809,0,0,0,0,0,0,0.9567,0.9574,0.9632,0.9604,0.961,0.961,0.9628,0.9627,0.9637,0.964,0.9639,0.9629,0.9645,0.965,0.9692,0.9721,0.9665,0.9667,0.9801,0.9805,0.9807,0.9853,0,0,0,0,0,0,0.9565,0.9574,0.9595,0.9604,0.9612,0.967,0.963,0.9629,0.9642,0.9638,0.965,0.965,0.9644,0.9688,0.9695,0.9724,0.967,0.9799,0.9803,0.9806,0.9849,0.9857,0.9864,0,0,0,0,0,0.9562,0.9608,0.9597,0.9604,0.9639,0.9671,0.9676,0.9667,0.9645,0.9666,0.9668,0.965,0.9716,0.9692,0.97,0.973,0.9797,0.9802,0.9806,0.9845,0.9855,0.9864,0,0,0,0,0,0,0.9603,0.9609,0.9597,0.9647,0.9659,0.9666,0.9693,0.9678,0.9697,0.9693,0.9681,0.9684,0.9729,0.9733,0.9706,0.9784,0.9753,0.9759,0.978,0.979,0.9797,0.9795,0.9672,0,0,0,0,0,0.9617,0.9643,0.9647,0.969,0.9697,0.9694,0.9708,0.97,0.9712,0.9717,0.9722,0.9734,0.9758,0.9774,0.9796,0.9849,0.9851,0.9873,0.9881,0.9887,0.9893,0.9921,0.9931,0.9824,0.9823,0.9823,0,0,0.9648,0.9655,0.9672,0.9699,0.9707,0.9734,0.9698,0.9729,0.9748,0.9722,0.9761,0.9765,0.9778,0.9825,0.9846,0.9831,0.9923,0.9893,0.9898,0.9901,0.9927,0.9937,0.9946,0.9827,0.9826,0.9826,0,0,0.9718,0.9726,0.9763,0.9771,0.9784,0.9782,0.979,0.9799,0.98,0.9839,0.982,0.9843,0.9884,0.9894,0.9904,0.9976,0.9961,0.9984,1.0024,1.0051,1.006,1.0067,1.0093,1.0102,0.9989,0.9989,0.9989,0,0.9756,0.9795,0.9784,0.9815,0.9827,0.9803,0.984,0.9849,0.9869,0.9878,0.986,0.991,0.9917,0.9966,0.9983,0.9993,1.0002,0.9983,1.0059,1.0067,1.0073,1.0098,1.0107,0.9992,0.9992,0.9991,0.9991,0,0.984,0.9868,0.9896,0.9914,0.993,0.9964,0.9957,0.9974,0.9964,0.9963,1.0002,1.001,1.0033,1.0043,1.0034,1.0091,1.008,1.0061,1.0029,1.0087,1.0109,1.0118,0.9996,0.9995,0.9994,0.9993,0,0,0.9939,0.9949,0.996,0.9967,0.9979,1.0,1.0032,1.0054,1.0068,1.0082,1.0109,1.0143,1.0124,1.0136,1.0128,1.0152,1.0208,1.0129,1.0129,1.0144,1.027,1.0285,1.0296,1.0197,1.0198,1.02,1.0269,0,1.0009,1.0065,1.0055,1.0109,1.0134,1.0111,1.0139,1.0149,1.0148,1.0169,1.0168,1.0193,1.0167,1.0173,1.0196,1.0196,1.0233,1.0191,1.0222,1.0223,1.022,1.0308,1.0324,1.0389,1.0277,1.0279,1.028,0,1.0099,1.0115,1.0172,1.0178,1.0188,1.0214,1.0232,1.0252,1.0263,1.026,1.0273,1.026,1.0291,1.0258,1.0302,1.0273,1.0285,1.0287,1.0289,1.0292,1.0256,1.0314,1.0409,1.0419,1.0294,1.0293,1.0292,0,1.0165,1.0201,1.024,1.0247,1.0255,1.0274,1.0278,1.0286,1.0299,1.0315,1.0323,1.0343,1.0353,1.0368,1.036,1.0337,1.0405,1.0372,1.0404,1.0405,1.0421,1.042,1.052,1.0427,1.0427,1.0427,1.0427,0,1.0245,1.0281,1.0269,1.0293,1.0332,1.0319,1.0358,1.036,1.0367,1.039,1.0371,1.0393,1.0381,1.0403,1.0396,1.0433,1.0438,1.0437,1.0435,1.0439,1.0439,1.0447,1.0443,1.043,1.0429,1.0429,1.0428,0,1.0327,1.032,1.0361,1.0365,1.0366,1.0395,1.0398,1.042,1.0417,1.0447,1.0453,1.0449,1.0473,1.0466,1.0492,1.0487,1.0534,1.0526,1.0531,1.0529,1.0562,1.0559,1.0671,1.0685,1.0583,1.0584,1.0585,0,1.0379,1.0406,1.0412,1.0426,1.0431,1.0454,1.0467,1.0455,1.0469,1.0482,1.0502,1.0524,1.0541,1.058,1.0579,1.0599,1.0592,1.0629,1.0595,1.0597,1.0592,1.0591,1.0594,1.0637,1.0638,1.0639,1.064,0,1.0472,1.0467,1.0486,1.0504,1.0519,1.0533,1.0545,1.0557,1.0545,1.0562,1.0586,1.0599,1.0625,1.0647,1.0664,1.0668,1.0652,1.065,1.0659,1.0664,1.0665,1.0665,1.055,1.0648,1.0647,1.0647,1.0646,1.0646,1.054,1.0563,1.057,1.0592,1.0599,1.061,1.063,1.0629,1.0649,1.0669,1.066,1.0687,1.0695,1.0717,1.0723,1.0744,1.073,1.0742,1.0746,1.0749,1.0753,1.0661,1.0747,1.0747,1.0747,1.0747,1.0746,0,1.0633,1.0636,1.0656,1.0672,1.0689,1.0671,1.0682,1.0698,1.0722,1.073,1.0747,1.0774,1.0794,1.0794,1.0814,1.083,1.0823,1.0836,1.0835,1.0836,1.0765,1.0756,1.0841,1.0841,1.0841,1.0841,1.0841,1.0841,1.0683,1.0719,1.0715,1.0754,1.0757,1.0783,1.0791,1.0801,1.0808,1.0838,1.0855,1.0855,1.086,1.0879,1.0897,1.0896,1.0904,1.0919,1.0916,1.085,1.0841,1.0832,1.0823,1.0921,1.0921,1.0985,1.0986,1.0986]}]]